Weather History for K0VG - June, 2014

Change the Weather History Date:

Thursday, June 19, 2014

  Actual Average (KLOZ) Record (KLOZ)
Temperature  
Mean Temperature 76 °F 74 °F  
Max Temperature 87 °F 85 °F 93 °F (1994)
Min Temperature 64 °F 63 °F 48 °F (1965)
Degree Days  
Heating Degree Days 0 0  
Month to date heating degree days 7  
Since 1 June heating degree days 7  
Since 1 July heating degree days 4203  
Cooling Degree Days 10 9  
Month to date cooling degree days 133  
Year to date cooling degree days 247  
Since 1 June cooling degree days 133  
Growing Degree Days 26 (Base 50)    
Moisture  
Dew Point 67 °F    
Average Humidity 80    
Maximum Humidity 100    
Minimum Humidity 51    
Precipitation  
Precipitation 0.00 in 0.14 in 1.21 in (1958)
Month to date precipitation 2.87  
Year to date precipitation 23.40  
Sea Level Pressure  
Sea Level Pressure 30.18 in    
Wind  
Wind Speed 2 mph (WSW)    
Max Wind Speed 12 mph    
Max Gust Speed -    
Visibility 10 miles    
Events Thunderstorm    
T = Trace of Precipitation, MM = Missing Value Source: NWS Daily Summary

Daily Weather History Graph

Daily Weather History Graph

Search for Another Location

Airport or City:

Trip Planner

Search our weather history database for the weather conditions in past years. The results will help you decide how hot, cold, wet, or windy it might be!

Date:

Astronomy

Jun. 19, 2014 Rise Set
Actual Time 6:14 AM EDT 8:54 PM EDT
Civil Twilight 5:43 AM EDT 9:25 PM EDT
Nautical Twilight 5:05 AM EDT 10:03 PM EDT
Astronomical Twilight 4:22 AM EDT 10:46 PM EDT
Moon 1:07 AM EDT (6/19) 1:32 PM EDT (6/19)
Length of Visible Light 15h 41m
Length of Day
14h 40m
Waning Gibbous, 51% of the Moon is Illuminated
Jun 19
Waning Gibbous
Jun 19
Last Quarter
Jun 27
New
Jul 5
First Quarter
Jul 12
Full

Hourly Weather History & Observations

Time (EDT) Temp. Heat Index Dew Point Humidity Pressure Visibility Wind Dir Wind Speed Gust Speed Precip Events Conditions
12:15 AM 68.0 °F - 68.0 °F 100% 30.17 in 10.0 mi Calm Calm - N/A   Partly Cloudy
12:35 AM 68.0 °F - 66.2 °F 94% 30.18 in 10.0 mi Calm Calm - N/A   Unknown
12:55 AM 68.0 °F - 66.2 °F 94% 30.18 in 10.0 mi Calm Calm - N/A   Unknown
1:15 AM 68.0 °F - 66.2 °F 94% 30.17 in 10.0 mi Calm Calm - N/A   Unknown
1:35 AM 68.0 °F - 66.2 °F 94% 30.17 in 10.0 mi Calm Calm - N/A   Unknown
1:55 AM 66.2 °F - 66.2 °F 100% 30.16 in 10.0 mi Calm Calm - N/A   Unknown
2:15 AM 68.0 °F - 66.2 °F 94% 30.17 in 10.0 mi Calm Calm - N/A   Unknown
2:35 AM 66.2 °F - 66.2 °F 100% 30.17 in 10.0 mi Calm Calm - N/A   Unknown
2:55 AM 66.2 °F - 66.2 °F 100% 30.17 in 10.0 mi Calm Calm - N/A   Unknown
3:15 AM 66.2 °F - 66.2 °F 100% 30.17 in 10.0 mi Calm Calm - N/A   Unknown
3:35 AM 64.4 °F - 64.4 °F 100% 30.17 in 7.0 mi Calm Calm - N/A   Unknown
3:55 AM 66.2 °F - 66.2 °F 100% 30.17 in 9.0 mi Calm Calm - N/A   Unknown
4:15 AM 64.4 °F - 64.4 °F 100% 30.17 in 7.0 mi North 3.5 mph - N/A   Unknown
4:35 AM 66.2 °F - 66.2 °F 100% 30.18 in 10.0 mi Calm Calm - N/A   Partly Cloudy
4:55 AM 66.2 °F - 66.2 °F 100% 30.17 in 9.0 mi Calm Calm - N/A   Unknown
5:15 AM 64.4 °F - 64.4 °F 100% 30.18 in 7.0 mi Calm Calm - N/A   Unknown
6:15 AM 64.4 °F - 64.4 °F 100% 30.19 in 8.0 mi Calm Calm - N/A   Unknown
6:35 AM 64.4 °F - 64.4 °F 100% 30.19 in 8.0 mi Calm Calm - N/A   Unknown
6:55 AM 64.4 °F - 64.4 °F 100% 30.20 in 5.0 mi Calm Calm - N/A   Clear
7:15 AM 66.2 °F - 66.2 °F 100% 30.21 in 7.0 mi Calm Calm - N/A   Clear
7:35 AM 66.2 °F - 64.4 °F 94% 30.21 in 10.0 mi Calm Calm - N/A   Clear
7:55 AM 68.0 °F - 66.2 °F 94% 30.22 in 9.0 mi Calm Calm - N/A   Clear
8:15 AM 69.8 °F - 66.2 °F 88% 30.22 in 10.0 mi Calm Calm - N/A   Clear
8:35 AM 71.6 °F - 68.0 °F 88% 30.21 in 10.0 mi Calm Calm - N/A   Clear
8:55 AM 73.4 °F - 68.0 °F 83% 30.22 in 10.0 mi Calm Calm - N/A   Clear
9:15 AM 75.2 °F - 68.0 °F 78% 30.22 in 10.0 mi SW 3.5 mph - N/A   Clear
9:35 AM 75.2 °F - 68.0 °F 78% 30.22 in 10.0 mi SSW 3.5 mph - N/A   Clear
9:55 AM 77.0 °F - 68.0 °F 74% 30.22 in 10.0 mi SSW 3.5 mph - N/A   Clear
10:15 AM 78.8 °F - 68.0 °F 69% 30.22 in 10.0 mi Calm Calm - N/A   Clear
10:55 AM 82.4 °F 86.3 °F 69.8 °F 66% 30.21 in 10.0 mi Calm Calm - N/A   Clear
11:15 AM 82.4 °F 86.3 °F 69.8 °F 66% 30.20 in 10.0 mi SSW 5.8 mph - N/A   Clear
11:35 AM 84.2 °F 88.4 °F 69.8 °F 62% 30.21 in 10.0 mi West 3.5 mph - N/A   Scattered Clouds
11:55 AM 84.2 °F 87.3 °F 68.0 °F 58% 30.21 in 10.0 mi West 4.6 mph - N/A   Scattered Clouds
12:15 PM 86.0 °F 89.4 °F 68.0 °F 55% 30.20 in 10.0 mi SW 9.2 mph - N/A   Partly Cloudy
12:35 PM 86.0 °F 89.4 °F 68.0 °F 55% 30.19 in 10.0 mi WNW 6.9 mph - N/A   Partly Cloudy
12:55 PM 86.0 °F 89.4 °F 68.0 °F 55% 30.17 in 10.0 mi WNW 5.8 mph - N/A Thunderstorm Scattered Clouds
1:15 PM 87.8 °F 91.4 °F 68.0 °F 52% 30.16 in 10.0 mi West 4.6 mph - N/A Thunderstorm Thunderstorm
1:35 PM 86.0 °F 89.4 °F 68.0 °F 55% 30.17 in 10.0 mi WNW 9.2 mph - N/A   Scattered Clouds
1:55 PM 84.2 °F 85.6 °F 64.4 °F 51% 30.18 in 10.0 mi Calm Calm - N/A Thunderstorm Thunderstorm
2:15 PM 82.4 °F 84.6 °F 66.2 °F 58% 30.17 in 10.0 mi WSW 6.9 mph - N/A   Clear
2:35 PM 80.6 °F 83.2 °F 68.0 °F 65% 30.17 in 10.0 mi SW 11.5 mph - N/A   Clear
2:55 PM 80.6 °F 82.3 °F 64.4 °F 58% 30.18 in 10.0 mi SW 8.1 mph - N/A Thunderstorm Clear
3:15 PM 78.8 °F - 64.4 °F 61% 30.17 in 10.0 mi SW 6.9 mph - N/A   Clear
3:35 PM 78.8 °F - 64.4 °F 61% 30.17 in 10.0 mi SW 8.1 mph - N/A   Clear
3:55 PM 77.0 °F - 66.2 °F 69% 30.17 in 10.0 mi SSW 8.1 mph - N/A   Clear
4:15 PM 77.0 °F - 66.2 °F 69% 30.16 in 10.0 mi SW 9.2 mph - N/A   Clear
4:35 PM 78.8 °F - 66.2 °F 65% 30.15 in 10.0 mi Calm Calm - N/A   Clear
4:55 PM 80.6 °F 82.7 °F 66.2 °F 61% 30.15 in 10.0 mi Calm Calm - N/A   Clear
5:15 PM 78.8 °F - 66.2 °F 65% 30.14 in 10.0 mi Calm Calm - N/A   Clear
5:35 PM 78.8 °F - 68.0 °F 69% 30.14 in 10.0 mi SW 6.9 mph - N/A   Clear
5:55 PM 80.6 °F 83.2 °F 68.0 °F 65% 30.14 in 10.0 mi SW 8.1 mph - N/A   Clear
6:15 PM 80.6 °F 83.9 °F 69.8 °F 70% 30.13 in 10.0 mi WSW 5.8 mph - N/A   Clear
6:35 PM 82.4 °F 86.3 °F 69.8 °F 66% 30.13 in 10.0 mi SW 8.1 mph - N/A   Clear
6:55 PM 80.6 °F 84.6 °F 71.6 °F 74% 30.14 in 10.0 mi SW 10.4 mph - N/A   Clear
7:15 PM 80.6 °F 83.2 °F 68.0 °F 65% 30.14 in 10.0 mi WSW 9.2 mph - N/A   Clear
7:35 PM 77.0 °F - 68.0 °F 74% 30.15 in 10.0 mi WSW 5.8 mph - N/A   Clear
7:55 PM 77.0 °F - 69.8 °F 78% 30.15 in 10.0 mi WSW 3.5 mph - N/A   Clear
8:15 PM 75.2 °F - 69.8 °F 83% 30.14 in 10.0 mi West 3.5 mph - N/A   Clear
8:30 PM 75.2 °F - 68.0 °F 78% 30.14 in 10.0 mi Calm Calm - N/A   Clear
8:55 PM 75.2 °F - 69.8 °F 83% 30.13 in 10.0 mi Calm Calm - N/A   Clear
9:15 PM 73.4 °F - 69.8 °F 88% 30.15 in 10.0 mi Calm Calm - N/A   Unknown
9:35 PM 71.6 °F - 69.8 °F 94% 30.16 in 10.0 mi Calm Calm - N/A   Unknown
9:55 PM 71.6 °F - 69.8 °F 94% 30.17 in 10.0 mi Calm Calm - N/A Thunderstorm Clear
10:15 PM 71.6 °F - 69.8 °F 94% 30.17 in 10.0 mi Calm Calm - N/A   Clear
10:30 PM 71.6 °F - 69.8 °F 94% 30.19 in 10.0 mi Calm Calm - N/A   Clear
10:55 PM 71.6 °F - 68.0 °F 88% 30.18 in 10.0 mi East 5.8 mph - N/A   Clear
11:15 PM 69.8 °F - 68.0 °F 94% 30.18 in 10.0 mi Calm Calm - N/A   Unknown
11:35 PM 69.8 °F - 68.0 °F 94% 30.17 in 10.0 mi Calm Calm - N/A   Unknown